User: anonymous
Location: Caltech
(34.1382°N, 118.1253°W)
Time: 20:57:33
(UTC-07:00)
Language:

Iridium 15 - Orbit

View from above orbital plane
View from above orbital plane
View from above satellite
View from above satellite

Ground track
Ground track

The orbit data is extracted from the following two-line orbital elements,

1 24869U 97034A   14114.47125819  .00000076  00000-0  20097-4 0  8792
2 24869 086.3952 142.4136 0002382 107.1470 025.1718 14.34217294879128
Epoch (UTC): 24 April 2014 11:18:36
Eccentricity: 0.0002382
inclination: 86.3952°
perigee height: 776 km
apogee height: 779 km
right ascension of ascending node: 142.4136°
argument of perigee: 107.1470°
revolutions per day: 14.34217294
mean anomaly at epoch: 25.1718°
orbit number at epoch: 87912

The dashed part of the orbit path shows where the satellite is in the earth's shadow,  

DLR